C/2006 YC ( Catalina-Christensen )

Japanese version
Home page
Updated on April 3, 2008

---------------------------------------------------------------------

* Profile

Discovery Date December 16, 2006
Magnitude 20.0 mag, 19.4 mag
Discoverer Catalina Sky Survey, E. J. Christensen (Mount Lemmon Survey)

* Orbital Elements

Epoch 2006 Sept. 22.0 TT = JDT 2454000.5
T 2006 Sept. 11.69807 TT                                MPC
q   4.9480646            (2000.0)            P               Q
z  -0.0000644      Peri.  335.50758     -0.75710137     -0.51141395
 +/-0.0000180      Node   154.28887     +0.63643413     -0.43690840
e   1.0003186      Incl.   69.55789     -0.14747581     +0.73997758

* Magnitudes Graph

        m1 = 8.5 + 5 log d + 10.0 log r

---------------------------------------------------------------------

The orbital elements are published on M.P.E.C. 2007-E04.
The magnitudes graphs are made with Comet for Windows.

---------------------------------------------------------------------

Copyright(C) Seiichi Yoshida (comet@aerith.net). All rights reserved.